| time (UTC) | temp F | wind direction | speed knots | gust knots | rain 1hr in | rain 24hr in | rain mn in | humidity % | barometer mb |
| 20260905193035 | 97 | 327 | 1.7 | 7.8 | 0.00 | 0.00 | 0.00 | 45 | 1012.5 |
| 20260905191535 | 97 | 319 | 0.9 | 3.5 | 0.00 | 0.00 | 0.00 | 45 | 1013.0 |
| 20260905183039 | 95 | 279 | 5.2 | 10.4 | 0.00 | 0.00 | 0.00 | 48 | 1013.9 |
| 20260905180036 | 95 | 15 | 1.7 | 7.0 | 0.00 | 0.00 | 0.00 | 44 | 1014.4 |
| 20260905174544 | 95 | 350 | 2.6 | 7.8 | 0.00 | 0.00 | 0.00 | 46 | 1014.5 |
| 20260905171535 | 94 | 265 | 6.1 | 11.3 | 0.00 | 0.00 | 0.00 | 51 | 1014.8 |
| 20260905170035 | 95 | 268 | 3.5 | 9.6 | 0.00 | 0.00 | 0.00 | 52 | 1015.0 |
| 20260905163036 | 96 | 292 | 1.7 | 7.0 | 0.00 | 0.00 | 0.00 | 50 | 1015.1 |
| 20260905161534 | 95 | 316 | 0.9 | 2.6 | 0.00 | 0.00 | 0.00 | 51 | 1015.0 |
| 20260905153036 | 92 | 81 | 0.9 | 6.1 | 0.00 | 0.00 | 0.00 | 57 | 1015.1 |
| 20260905144541 | 88 | 9 | 1.7 | 4.3 | 0.00 | 0.00 | 0.00 | 63 | 1014.7 |
| 20260905140038 | 85 | 0 | 0.9 | 2.6 | 0.00 | 0.00 | 0.00 | 69 | 1014.9 |
| 20260905131553 | 81 | 0 | 0.0 | 0.0 | 0.00 | 0.00 | 0.00 | 76 | 1014.7 |
| 20260905130036 | 79 | 0 | 0.0 | 0.0 | 0.00 | 0.00 | 0.00 | 77 | 1014.4 |
| 20260905121537 | 77 | 0 | 0.0 | 0.9 | 0.00 | 0.00 | 0.00 | 77 | 1013.8 |
| 20260905113040 | 78 | 0 | 0.0 | 0.0 | 0.00 | 0.00 | 0.00 | 75 | 1014.0 |
| 20260905111546 | 78 | 0 | 0.0 | 0.0 | 0.00 | 0.00 | 0.00 | 75 | 1014.0 |
| 20260905110034 | 78 | 0 | 0.0 | 0.0 | 0.00 | 0.00 | 0.00 | 74 | 1013.8 |
| 20260905103036 | 79 | 0 | 0.0 | 0.0 | 0.00 | 0.00 | 0.00 | 73 | 1013.9 |
| 20260905101539 | 79 | 0 | 0.0 | 0.0 | 0.00 | 0.00 | 0.00 | 73 | 1013.8 |
| 20260905100033 | 79 | 0 | 0.0 | 0.0 | 0.00 | 0.00 | 0.00 | 74 | 1013.7 |
| 20260905093036 | 79 | 0 | 0.0 | 0.0 | 0.00 | 0.00 | 0.00 | 74 | 1013.6 |
| 20260905091538 | 80 | 0 | 0.0 | 0.0 | 0.00 | 0.00 | 0.00 | 74 | 1013.4 |
| 20260905084557 | 81 | 0 | 0.0 | 0.0 | 0.00 | 0.00 | 0.00 | 71 | 1013.2 |
| 20260905083035 | 81 | 0 | 0.0 | 0.0 | 0.00 | 0.00 | 0.00 | 71 | 1013.2 |
| 20260905074534 | 82 | 0 | 0.0 | 0.0 | 0.00 | 0.00 | 0.00 | 69 | 1013.1 |
| 20260905073035 | 83 | 0 | 0.0 | 2.6 | 0.00 | 0.00 | 0.00 | 68 | 1013.4 |
| 20260905053036 | 85 | 5 | 0.0 | 3.5 | 0.00 | 0.00 | 0.00 | 63 | 1013.4 |
| 20260905043034 | 86 | 355 | 0.9 | 7.0 | 0.00 | 0.00 | 0.00 | 62 | 1013.4 |
| 20260905034544 | 88 | 281 | 0.9 | 3.5 | 0.00 | 0.00 | 0.00 | 59 | 1013.4 |
| 20260905030037 | 89 | 341 | 1.7 | 3.5 | 0.00 | 0.00 | 0.00 | 58 | 1013.3 |
| 20260905024546 | 89 | 273 | 1.7 | 4.3 | 0.00 | 0.00 | 0.00 | 57 | 1013.1 |
| 20260905020044 | 91 | 299 | 2.6 | 5.2 | 0.00 | 0.00 | 0.00 | 55 | 1012.3 |
| 20260905000036 | 95 | 291 | 3.5 | 7.8 | 0.00 | 0.00 | 0.00 | 43 | 1011.4 |
| 20260904214542 | 99 | 273 | 4.3 | 10.4 | 0.00 | 0.00 | 0.00 | 45 | 1011.7 |